Location: Unspecified
(0.0000°N, 0.0000°E)
Time: 14:55:35
(UTC+00:00)

CZ-4 DEB - Pass Details

Date: 19 June 2024
Orbit: 785 x 976 km, 99.1° (Epoch: 18 July)

Event Time Altitude Azimuth Distance (km) Brightness Sun altitude
Exits shadow 21:09:14 19° 262° (W) 2,082 ? -42.1°
Drops below altitude 10° 21:13:02 10° 301° (WNW) 2,700 ? -42.9°
Sets 21:16:14 0° 318° (NW) 3,657 ? -43.5°
